Regional Weather Roundup
Issued by NWS Charleston, SC

Home | Current Version | Previous Version | Text Only | Print | Product List | Glossary On
Versions: 1 2 3 4 5 6 7 8 9 10 11 12 13 14 15 16 17 18 19 20 21 22 23 24 25 26 27 28 29 30 31 32 33 34 35 36 37 38 39 40 41 42 43 44 45 46 47 48 49 50
000
ASUS42 KCHS 302028
RWRCHS

REGIONAL WEATHER ROUNDUP
NATIONAL WEATHER SERVICE CHARLESTON SC
400 PM EDT SAT JUL 30 2016

NOTE: "FAIR" INDICATES FEW OR NO CLOUDS BELOW 12,000 FEET WITH NO
SIGNIFICANT WEATHER AND/OR OBSTRUCTIONS TO VISIBILITY.

NOT ALL STATIONS ARE QUALITY CONTROLLED. USE DATA WITH CAUTION...
ESPECIALLY DEWPOINT OBSERVATIONS.

SCZ027-030-031-034>040-042>050-302100-
...SOUTHEAST SOUTH CAROLINA...

CITY           SKY/WX    TMP DP  RH WIND       PRES   REMARKS
N CHARLESTON   MOSUNNY   97  72  44 S13       29.95F HX 105
WATERFRONT PRK   N/A     92  76  59 S12       29.96F HX 104
MOUNT PLEASANT FAIR      93  75  55 S12G21    29.96F HX 104
JOHNS ISLAND   FAIR      93  81  66 S13G18    29.97F HX 113
PINOPOLIS        N/A     97  72  44 SW7       29.87F HX 105
MONCKS CORNER  FAIR      93  63  36 S10       29.94F HX  94
SUMMERVILLE    FAIR      99  68  36 SW7       29.95F HX 104
BEAUFORT MCAS  MOSUNNY   98  76  49 S6G20     29.95F HX 112
BEAUFORT ARPT  FAIR      95  75  52 SW9G18    29.96F HX 107
HILTON HEAD IS MOSUNNY   97  79  56 S12       29.99F HX 115
WALTERBORO     CLEAR     99  66  34 SW8       29.95F HX 102
ALLENDALE      FAIR      97  68  38 W8G14     29.94F HX 101

...SOUTHERN MIDLANDS AND PEE DEE...

CITY           SKY/WX    TMP DP  RH WIND       PRES   REMARKS
GEORGETOWN     FAIR      91  75  59 S9        29.97F HX 102
KINGSTREE      FAIR      97  66  36 SW6       29.93F HX 100
ORANGEBURG     MOSUNNY   98  67  36 SW12      29.94F HX 102
BARNWELL       NOT AVBL
AIKEN          FAIR      88  70  55 SW8       30.01F HX  92
MANNING        FAIR      97  70  41 S10G17    29.94F HX 103
COLUMBIA       CLOUDY    95  66  38 W12       29.94S HX  98
SUMTER         SUNNY     97  68  39 SW12      29.91F HAZE    HX 102
FLORENCE       SUNNY     97  70  41 SW14G21   29.94F HX 103
MYRTLE BEACH   PTSUNNY   93  72  49 S20       29.97F HX 100
N MYRTLE BEACH MOSUNNY   88  80  77 S13G20    29.95F HX 104

$$

GAZ063-065-086>088-099>101-113>116-118-119-134>141-150-302100-
...SOUTHEAST GEORGIA...

CITY           SKY/WX    TMP DP  RH WIND       PRES   REMARKS
SAVANNAH ARPT  MOSUNNY   97  69  40 S8        29.96F HX 103
HUNTER AAF     SUNNY     94  78  61 S12G18    29.95F HX 110
FORT STEWART   PTSUNNY   94  72  49 CALM      29.94F HX 102
STATESBORO     MOSUNNY   97  72  44 SW3       29.95F HX 106
SYLVANIA       NOT AVBL
CLAXTON        FAIR      96  70  41 CALM      29.95F HX 103

...CSRA...CENTRAL AND FAR SOUTHEAST GEORGIA...

CITY           SKY/WX    TMP DP  RH WIND       PRES   REMARKS
THOMSON        NOT AVBL
AUGUSTA-BUSH   HVY RAIN  80  74  81 W5        29.98S
AUGUSTA-DANIEL CLOUDY    81  74  79 S6        30.00F
SWAINSBORO     FAIR      95  68  41 W7        29.98S HX  99
VIDALIA        MOSUNNY   99  64  32 CALM      29.96F HX 101
EASTMAN        FAIR      91  60  36 W6        30.01F HX  90
HAZLEHURST     FAIR      99  69  37 CALM      29.96F HX 105
ALMA           MOSUNNY   99  68  36 VRB7      29.98F HX 104
WAYCROSS       MOSUNNY  102  70  35 W10       29.97F HX 110
JESUP          FAIR      99  73  44 W5        29.97F HX 109
BAXLEY         FAIR      99  73  44 S8        29.96F HX 109
BRUNSWICK      MOSUNNY   95  77  55 S9G18     29.99F HX 109
SAINT SIMONS   SUNNY     92  75  57 SE16      30.00F HX 103

$$

SCZ027-028-034-036>038-045-046-048>050-GAZ119-141-302100-
...LAKE AND SUPPLEMENTAL COASTAL OBSERVATIONS...

STATION/POSITION TIME  TEMP    WIND        PRES    WAVE   SWELL
                       AIR SEA DIR/SP/G            HT/PER HT/PER/DIR
                 (UTC) (F)     (DEG/KT/KT) (MB)    (FT/S) (FT/S/D)
WINYAH BAY       1900   89     180/ 11     1014.0F
LAKE MURRAY      1900   92     240/ 13/ 14 1013.5F
ACE BASIN NERRS  1900   94     160/  3     1015.0F
FORT PULASKI     2000   91 88  160/  8/ 14 1015.5F
SAPELO ISLAND    2000   93     150/ 12     1015.0F

$$

ANZ835-935-AMZ111-154-330-350-352-354-370-450-454-472-302100-
...C-MAN AND BUOY OBSERVATIONS...

STATION/POSITION TIME  TEMP    WIND        PRES    WAVE   SWELL
                       AIR SEA DIR/SP/G            HT/PER HT/PER/DIR
                 (UTC) (F)     (DEG/KT/KT) (MB)    (FT/S) (FT/S/D)
BUOY 41004       1950   86 87  220/ 12/ 14 1015.1F   2/ 5   2/150/ 8
BUOY 41008       1950   86 88  160/ 14/ 16 1015.7F   1/ 8   2/100/ 8
FOLLY BEACH CMAN 2000   87     190/ 15/ 17 1015.2F
CAPERS NEARSHORE 2008   86 87  200/ 14/ 19 1014.3F
FRIPP NEARSHORE  2008   87 88  190/ 16/ 19 1014.4F


STATION/POSITION TIME  TEMP    WIND        PRES    WAVE   SWELL
                       AIR SEA DIR/SP/G            HT/PER HT/PER/DIR
                 (UTC) (F)     (DEG/KT/KT) (MB)    (FT/S) (FT/S/D)
5E ST. MARYS GA  2001      87                N/A     1/ 8
FRYING PAN BUOY  2000   86 86  200/ 12/ 14 1014.4F
BUOY 41025       1950   85 85  180/ 14/ 16 1015.0F   2/ 6   2/210/ 6
CAPE LOOKOUT NC  2000   87     200/ 12/ 16 1014.0F
BUOY 41002       1950   85 85  220/  8/  8 1017.8F   3/ 5   2/260/ 5
BUOY 41010       1920   86 90  340/  2/  4 1018.0F
ST AUGUSTINE FL  2000   84 87  110/  8/  9 1017.6F


$$



USA.gov is the U.S. government's official web portal to all federal, state and local government web resources and services.